Home   Weather   Cartagena   Past weeks

Flag for Colombia Past Weather in Cartagena, Colombia — Yesterday and Last 2 Weeks

Now
79 °F

Clear.


Feels Like: 82 °F
Forecast: 78 / 88 °F
Wind: 7 mph from Northeast

Location: Cartagena / Rafael Nunez

Current Time: Feb 19, 2017 at 11:18:16 pm

Latest Report: Feb 19, 2017 at 10:00 pm


Visibility: 10 mi

Pressure: 29.87 "Hg

Humidity: 84%

Dew Point: 73 °F

Location of CartagenaLocation

Past Weather in Cartagena — Graph

°F

Cartagena Temperature Yesterday

Maximum temperature yesterday: 90 °F (at 12:00 pm)
Minimum temperature yesterday: 75 °F (at 6:00 am)
Average temperature yesterday: 81 °F

High & Low Weather Summary for the Past Weeks

 TemperatureHumidityPressure
High91 °F (Feb 9, 1:00 pm)100% (Feb 10, 2:00 am)30.00 "Hg (Feb 10, 2:00 am)
Low73 °F (Feb 13, 6:00 am)55% (Feb 10, 2:00 pm)29.68 "Hg (Feb 5, 4:00 pm)
Average81 °F80%29.83 "Hg
* Reported Feb 4 10:00 pm — Feb 19 10:00 pm, Cartagena, Weather by CustomWeather, © 2017

Note: Actual official high and low records may vary slightly from our data, if they occured in-between our weather recording intervals... More about our weather records

Advertising

Cartagena Weather History for the Previous 24 Hours

Scroll right to see more
 ConditionsComfort  
Time TempWeatherWind HumidityBarometerVisibility
10:00 pm
Sun, Feb 19
79 °FClear.7 mph84%29.87 "Hg10 mi
9:00 pm79 °FClear.8 mph79%29.86 "Hg10 mi
8:00 pm79 °FClear.9 mph79%29.85 "Hg10 mi
7:00 pm81 °FClear.9 mph74%29.83 "Hg10 mi
6:00 pm82 °FPassing clouds.9 mph70%29.81 "HgN/A
5:00 pm84 °FPassing clouds.18 mph70%29.81 "HgN/A
4:00 pm88 °FPassing clouds.16 mph59%29.81 "HgN/A
3:00 pm88 °FPassing clouds.14 mph62%29.83 "HgN/A
2:00 pm88 °FPassing clouds.12 mph62%29.84 "HgN/A
1:00 pm88 °FPassing clouds.7 mph59%29.88 "HgN/A
12:00 pm86 °FPassing clouds.9 mph62%29.90 "HgN/A
11:00 am86 °FSunny.9 mph62%29.91 "Hg10 mi
10:00 am86 °FSunny.5 mph59%29.92 "Hg10 mi
9:00 am84 °FSunny.8 mph66%29.91 "Hg10 mi
8:00 am77 °FSunny.5 mph89%29.90 "Hg10 mi
7:00 am75 °FPassing clouds.3 mph89%29.88 "HgN/A
6:00 am75 °FPassing clouds.5 mph94%29.86 "HgN/A
5:00 am77 °FClear.7 mph89%29.84 "Hg10 mi
4:00 am77 °FClear.7 mph89%29.83 "Hg10 mi
3:00 am77 °FClear.8 mph89%29.83 "Hg10 mi
2:00 am77 °FClear.8 mph89%29.85 "Hg10 mi
1:00 am77 °FClear.8 mph89%29.86 "Hg10 mi
12:00 am79 °FClear.8 mph84%29.88 "Hg10 mi
11:00 pm
Sat, Feb 18
79 °FClear.7 mph84%29.89 "Hg10 mi
Weather by CustomWeather, © 2017

See weather overviewHow to use our weather pages